Tracking 22882 objects as of 19-Apr-2021
HD Live streaming from Space Station
objects crossing your sky now

STARLINK-1802

Track STARLINK-1802 now!
10-day predictions
STARLINK-1802 is classified as:


NORAD ID: 46702
Int'l Code: 2020-073AJ
Perigee: 550.1 km
Apogee: 558.7 km
Inclination: 53.1 °
Period: 95.6 minutes
Semi major axis: 6925 km
RCS: Unknown
Launch date: October 18, 2020
Source: United States (US)
Launch site: AIR FORCE EASTERN TEST RANGE (AFETR)
aabbcc
Your satellite tracking list
Your tracking list is empty




NASA's NSSDC Master Catalog

Two Line Element Set (TLE):
1 46702U 20073AJ  21108.31677256 -.00000562  00000-0 -18656-4 0  9995
2 46702  53.0547 320.9435 0006232  13.7891 346.3267 15.06394724 28162
Source of the keplerian elements: AFSPC